When you browse on this site, cookies collect data to enhance your experience and personalize the content and advertising you see.
Visit our Privacy Policy to learn more. By continuing to use the site, you agree to this use of cookies and data.

Hourly Weather Svetlica

Today, 5 August, Wednesday

Time Temperature Precipitation Wind Pressure Humidity
00:00 +17°C° 0 mm 4 mps 742 mmHg 83%
01:00 +17°C° 0 mm 4 mps 742 mmHg 83%
02:00 +17°C° 0 mm 4 mps 742 mmHg 84%
03:00 +17°C° 0 mm 4 mps 742 mmHg 84%
04:00 +17°C° 0 mm 4 mps 742 mmHg 83%
05:00 +17°C° 0 mm 4 mps 741 mmHg 83%
06:00 +18°C° 0.1 mm 4 mps 742 mmHg 83%
07:00 +18°C° 0.1 mm 4 mps 742 mmHg 83%
08:00 +19°C° 0.1 mm 4 mps 742 mmHg 82%
09:00 +19°C° 0.2 mm 4 mps 742 mmHg 84%
10:00 +19°C° 0.2 mm 3 mps 743 mmHg 85%
11:00 +19°C° 0.2 mm 3 mps 743 mmHg 86%
12:00 +20°C° 0 mm 3 mps 743 mmHg 83%
13:00 +20°C° 0 mm 3 mps 743 mmHg 81%
14:00 +21°C° 0 mm 2 mps 743 mmHg 78%
15:00 +21°C° 0 mm 2 mps 744 mmHg 78%
16:00 +21°C° 0 mm 2 mps 744 mmHg 79%
17:00 +21°C° 0 mm 2 mps 744 mmHg 79%
18:00 +21°C° 0.2 mm 1 mps 744 mmHg 84%
19:00 +20°C° 0.2 mm 1 mps 744 mmHg 89%
20:00 +19°C° 0.2 mm 1 mps 744 mmHg 94%
21:00 +19°C° 0 mm 1 mps 745 mmHg 95%
22:00 +18°C° 0 mm 1 mps 745 mmHg 96%
23:00 +18°C° 0 mm 1 mps 745 mmHg 97%

Tomorrow, 6 August, Thursday

Time Temperature Precipitation Wind Pressure Humidity
00:00 +16°C° 0 mm 1 mps 745 mmHg 97%
01:00 +16°C° 0 mm 1 mps 746 mmHg 97%
02:00 +15°C° 0 mm 1 mps 746 mmHg 97%
03:00 +15°C° 0 mm 1 mps 746 mmHg 95%
04:00 +15°C° 0 mm 1 mps 746 mmHg 93%
05:00 +15°C° 0 mm 1 mps 746 mmHg 91%
06:00 +16°C° 0 mm 1 mps 747 mmHg 84%
07:00 +18°C° 0 mm 2 mps 747 mmHg 77%
08:00 +19°C° 0 mm 2 mps 747 mmHg 70%
09:00 +20°C° 0 mm 2 mps 748 mmHg 63%
10:00 +23°C° 0 mm 2 mps 748 mmHg 57%
11:00 +24°C° 0 mm 3 mps 748 mmHg 50%
12:00 +24°C° 0 mm 3 mps 748 mmHg 49%
13:00 +24°C° 0 mm 3 mps 748 mmHg 47%
14:00 +25°C° 0 mm 3 mps 748 mmHg 46%
15:00 +24°C° 0 mm 3 mps 748 mmHg 49%
16:00 +24°C° 0 mm 3 mps 748 mmHg 51%
17:00 +24°C° 0 mm 3 mps 748 mmHg 54%
18:00 +21°C° 0 mm 2 mps 748 mmHg 63%
19:00 +19°C° 0 mm 2 mps 748 mmHg 72%
20:00 +18°C° 0 mm 1 mps 749 mmHg 81%
21:00 +16°C° 0 mm 1 mps 749 mmHg 82%
22:00 +15°C° 0 mm 1 mps 749 mmHg 83%
23:00 +15°C° 0 mm 1 mps 749 mmHg 85%

Day after tomorrow, 7 August, Friday

Time Temperature Precipitation Wind Pressure Humidity
00:00 +15°C° 0 mm 1 mps 749 mmHg 86%
01:00 +14°C° 0 mm 1 mps 750 mmHg 86%
02:00 +14°C° 0 mm 1 mps 750 mmHg 87%
03:00 +14°C° 0 mm 1 mps 750 mmHg 88%
04:00 +14°C° 0 mm 1 mps 750 mmHg 89%
05:00 +14°C° 0 mm 1 mps 750 mmHg 89%
06:00 +16°C° 0 mm 1 mps 750 mmHg 82%
07:00 +19°C° 0 mm 1 mps 750 mmHg 75%
08:00 +21°C° 0 mm 1 mps 751 mmHg 68%
09:00 +22°C° 0 mm 1 mps 751 mmHg 65%
10:00 +23°C° 0 mm 1 mps 751 mmHg 62%
11:00 +24°C° 0 mm 1 mps 751 mmHg 59%
12:00 +24°C° 0.2 mm 1 mps 750 mmHg 61%
13:00 +24°C° 0.2 mm 1 mps 750 mmHg 64%
14:00 +24°C° 0.2 mm 1 mps 750 mmHg 67%
15:00 +23°C° 0.5 mm 1 mps 750 mmHg 73%
16:00 +22°C° 0.5 mm 1 mps 750 mmHg 78%
17:00 +21°C° 0.5 mm 1 mps 749 mmHg 84%
18:00 +20°C° 0.1 mm 1 mps 749 mmHg 87%
19:00 +19°C° 0.1 mm 1 mps 749 mmHg 90%
20:00 +18°C° 0.1 mm 1 mps 749 mmHg 93%
21:00 +16°C° 0 mm 1 mps 749 mmHg 93%
22:00 +16°C° 0 mm 1 mps 750 mmHg 94%
23:00 +15°C° 0 mm 1 mps 750 mmHg 95%

8 August, Saturday

Time Temperature Precipitation Wind Pressure Humidity
00:00 +15°C° 0 mm 1 mps 750 mmHg 95%
01:00 +14°C° 0 mm 0 mps 750 mmHg 95%
02:00 +13°C° 0 mm 0 mps 750 mmHg 95%
03:00 +14°C° 0 mm 0 mps 750 mmHg 95%
04:00 +14°C° 0 mm 0 mps 750 mmHg 95%
05:00 +14°C° 0 mm 0 mps 750 mmHg 95%
06:00 +16°C° 0 mm 0 mps 750 mmHg 90%
07:00 +17°C° 0 mm 0 mps 750 mmHg 86%
08:00 +19°C° 0 mm 0 mps 749 mmHg 81%
09:00 +21°C° 0.1 mm 0 mps 749 mmHg 72%
10:00 +24°C° 0.1 mm 1 mps 749 mmHg 63%
11:00 +26°C° 0.1 mm 1 mps 749 mmHg 55%
12:00 +26°C° 0 mm 1 mps 749 mmHg 52%
13:00 +26°C° 0 mm 1 mps 748 mmHg 50%
14:00 +26°C° 0 mm 1 mps 748 mmHg 48%
15:00 +26°C° 0.1 mm 1 mps 747 mmHg 53%
16:00 +25°C° 0.1 mm 1 mps 747 mmHg 59%
17:00 +24°C° 0.1 mm 1 mps 747 mmHg 64%
18:00 +22°C° 0 mm 1 mps 747 mmHg 69%
19:00 +21°C° 0 mm 1 mps 746 mmHg 74%
20:00 +19°C° 0 mm 1 mps 746 mmHg 79%
21:00 +18°C° 0 mm 1 mps 746 mmHg 80%
22:00 +18°C° 0 mm 1 mps 746 mmHg 81%
23:00 +16°C° 0 mm 1 mps 746 mmHg 82%

9 August, Sunday

Time Temperature Precipitation Wind Pressure Humidity
00:00 +16°C° 0 mm 1 mps 746 mmHg 81%
01:00 +16°C° 0 mm 1 mps 746 mmHg 81%
02:00 +16°C° 0 mm 1 mps 745 mmHg 80%
03:00 +16°C° 0 mm 1 mps 745 mmHg 80%
04:00 +16°C° 0 mm 1 mps 745 mmHg 79%
05:00 +16°C° 0 mm 1 mps 745 mmHg 78%
06:00 +19°C° 0 mm 1 mps 745 mmHg 72%
07:00 +20°C° 0 mm 1 mps 745 mmHg 66%
08:00 +22°C° 0 mm 1 mps 744 mmHg 61%
09:00 +23°C° 0 mm 1 mps 744 mmHg 56%
10:00 +24°C° 0 mm 1 mps 744 mmHg 51%
11:00 +25°C° 0 mm 2 mps 744 mmHg 47%
12:00 +25°C° 0 mm 2 mps 743 mmHg 46%
13:00 +26°C° 0 mm 2 mps 743 mmHg 45%
14:00 +26°C° 0 mm 2 mps 743 mmHg 45%
15:00 +25°C° 0 mm 2 mps 742 mmHg 49%
16:00 +25°C° 0 mm 2 mps 742 mmHg 53%
17:00 +24°C° 0 mm 2 mps 742 mmHg 58%
18:00 +21°C° 0 mm 2 mps 742 mmHg 67%
19:00 +19°C° 0 mm 2 mps 742 mmHg 76%
20:00 +18°C° 0 mm 1 mps 742 mmHg 85%
21:00 +16°C° 0 mm 1 mps 742 mmHg 87%
22:00 +16°C° 0 mm 1 mps 742 mmHg 89%
23:00 +15°C° 0 mm 1 mps 742 mmHg 91%

10 August, Monday

Time Temperature Precipitation Wind Pressure Humidity
00:00 +15°C° 0 mm 1 mps 742 mmHg 92%
01:00 +13°C° 0 mm 0 mps 742 mmHg 92%
02:00 +13°C° 0 mm 0 mps 742 mmHg 93%
03:00 +13°C° 0 mm 0 mps 741 mmHg 93%
04:00 +13°C° 0 mm 0 mps 741 mmHg 92%
05:00 +13°C° 0 mm 0 mps 741 mmHg 92%
06:00 +15°C° 0 mm 1 mps 741 mmHg 84%
07:00 +18°C° 0 mm 1 mps 741 mmHg 77%
08:00 +19°C° 0 mm 2 mps 741 mmHg 69%
09:00 +19°C° 0.3 mm 2 mps 741 mmHg 72%
10:00 +19°C° 0.3 mm 2 mps 741 mmHg 75%
11:00 +19°C° 0.3 mm 2 mps 741 mmHg 79%
12:00 +20°C° 0.4 mm 2 mps 741 mmHg 77%
13:00 +20°C° 0.4 mm 2 mps 741 mmHg 76%
14:00 +21°C° 0.4 mm 2 mps 741 mmHg 74%
15:00 +20°C° 0.4 mm 2 mps 741 mmHg 74%
16:00 +20°C° 0.4 mm 2 mps 741 mmHg 74%
17:00 +20°C° 0.4 mm 2 mps 741 mmHg 74%
18:00 +19°C° 0.1 mm 2 mps 741 mmHg 80%
19:00 +17°C° 0.1 mm 2 mps 741 mmHg 86%
20:00 +15°C° 0.1 mm 2 mps 741 mmHg 92%
21:00 +14°C° 0 mm 2 mps 741 mmHg 93%
22:00 +13°C° 0 mm 1 mps 741 mmHg 94%
23:00 +12°C° 0 mm 1 mps 742 mmHg 95%
Show more